Location: Acheville
(50.3840°N, 2.8827°E)
Time: 11:03:20
(UTC+00:00)

Cosmos 1943 Rocket - Pass Details

Date: 24 October 2021
Orbit: 811 x 845 km, 71.0° (Epoch: 30 November)

Event Time Altitude Azimuth Distance (km) Brightness Sun altitude
Rises 20:24:49 0° 332° (NNW) 3,416 6.1 -35.9°
Reaches altitude 10° 20:27:26 10° 340° (NNW) 2,477 5.1 -36.3°
Enters shadow 20:29:29 21° 353° (N) 1,818 4.2 -36.6°
